GEFSGL_con_probscp_336.txt.gz
Probability
42 42 43 42 38 32 30 29 27 27 27 25 23 20 19 20 20 21 22 22 21 21 22 20 16 15 16 17 15 15 17 16 14 11 11 14 19 16 11 8 6 4 2
40 40 42 42 38 33 31 29 29 28 26 24 22 19 18 19 19 20 21 21 20 21 21 20 17 14 15 15 13 14 15 16 14 12 11 13 15 13 10 8 5 3 2
37 38 39 38 36 34 33 32 31 30 27 24 21 20 17 16 16 16 16 17 17 18 19 20 17 14 13 12 12 14 17 15 14 13 12 11 11 10 9 7 5 3 3
39 37 35 34 34 34 34 33 32 30 27 22 20 18 14 11 11 12 12 13 14 15 16 18 17 14 11 10 12 15 18 16 14 13 12 10 10 10 10 7 6 5 5
43 40 36 34 33 35 35 34 32 29 25 20 16 14 11 8 7 9 10 10 11 11 11 14 15 13 10 9 10 12 14 15 14 12 11 10 11 13 12 9 8 7 7
49 44 39 36 36 36 36 35 33 30 25 20 16 13 9 5 4 5 6 6 6 6 7 10 12 11 10 9 8 7 8 9 10 11 11 11 13 14 12 9 9 9 9
53 48 43 41 39 38 36 34 32 29 27 23 19 15 10 4 1 1 2 2 2 3 5 9 10 10 9 9 8 6 4 4 5 7 9 11 13 14 14 11 12 12 11
53 51 47 44 41 38 35 33 29 27 25 23 20 16 11 4 1 1 1 1 1 2 5 8 9 9 8 8 8 7 6 5 4 3 6 9 10 13 14 14 13 13 12
51 51 48 43 40 37 35 31 27 24 23 21 18 16 12 7 2 1 1 1 1 2 5 7 8 8 7 5 6 8 9 8 6 3 4 5 6 8 11 13 14 13 12
48 47 45 42 39 37 36 32 27 23 21 19 18 17 15 10 4 1 0 1 2 3 6 7 6 6 4 2 3 6 8 9 9 8 6 6 6 6 7 10 13 13 13
44 42 42 41 37 36 37 34 30 25 22 20 19 18 17 12 5 1 0 2 3 5 7 8 7 5 2 0 1 4 7 9 11 12 11 10 10 9 9 10 12 14 13
42 41 40 38 34 33 34 33 30 26 22 20 19 18 17 13 8 3 1 1 2 5 8 9 8 5 1 0 1 3 5 7 11 13 14 14 13 12 12 12 13 14 13
40 39 37 35 32 31 31 30 26 24 19 16 16 17 18 16 13 8 3 1 1 3 6 7 6 2 1 1 1 1 3 6 10 13 15 15 15 14 14 14 14 13 12
37 36 34 33 32 31 29 25 22 20 17 14 15 16 18 19 16 11 6 3 2 3 4 5 4 3 3 4 4 3 4 7 10 13 15 17 16 15 14 14 13 12 11
33 33 32 32 31 29 25 19 15 14 13 12 13 14 15 15 11 7 6 5 5 5 5 6 7 7 8 8 8 7 8 9 11 12 15 17 16 16 15 13 11 10 9
32 31 31 31 30 26 21 16 10 8 7 6 7 8 8 6 4 2 2 3 3 4 5 7 8 9 9 9 10 10 10 10 11 13 15 16 16 16 16 13 10 8 8
29 28 27 28 27 25 21 17 12 7 4 2 2 2 2 1 0 0 0 0 1 2 4 5 6 7 8 8 9 9 10 10 11 13 15 15 16 16 15 13 11 9 9
25 24 23 23 24 23 20 17 15 11 7 3 1 0 0 0 0 0 0 0 0 1 2 3 4 5 6 7 9 10 11 12 13 13 14 14 14 14 13 12 11 10 10
22 20 20 22 23 23 20 18 16 14 10 5 1 0 0 0 0 0 0 1 0 0 1 1 2 4 5 6 8 10 11 14 15 14 13 13 13 12 11 10 10 9 9
20 17 16 19 21 21 20 19 17 14 9 5 2 1 0 0 0 0 0 0 0 0 0 0 1 2 2 4 5 7 9 12 13 13 13 12 11 9 9 9 9 9 8
18 16 14 15 17 17 17 17 16 13 9 6 4 2 0 0 0 0 0 0 0 0 0 0 0 0 1 2 3 4 5 7 9 11 12 10 8 7 8 8 8 7 7
17 16 14 14 15 14 12 11 11 10 9 7 6 5 2 1 0 0 0 0 0 0 1 1 1 1 1 2 3 3 3 4 6 8 9 7 6 5 6 6 7 7 6
14 14 13 13 13 11 9 8 7 7 6 6 7 6 4 3 2 2 1 1 1 1 1 3 3 3 3 3 3 3 3 5 6 7 7 6 4 3 3 4 5 5 5
10 9 10 11 10 9 7 7 6 5 4 4 5 5 4 4 4 4 3 2 2 2 2 4 5 4 3 4 4 2 1 3 5 6 6 5 2 1 1 2 3 3 3
6 6 7 8 8 8 8 8 7 5 3 3 3 4 4 4 3 3 3 2 2 2 2 3 4 3 2 2 2 1 0 1 3 4 4 3 1 0 0 1 2 2 2
4 4 5 6 7 8 9 8 7 6 4 3 4 4 4 3 2 1 1 1 1 1 1 2 3 3 2 2 1 0 0 0 1 2 3 2 0 0 0 0 1 1 2

GEFSGL_con_probscp_342.txt.gz
Probability
23 24 23 20 18 19 19 17 16 16 16 16 15 13 10 8 7 7 7 6 7 6 4 3 4 4 5 6 6 6 6 6 6 4 3 3 3 3 3 1 0 0 0
22 22 22 20 18 19 19 19 18 16 16 16 16 13 10 8 8 8 8 7 7 7 5 4 4 4 5 5 6 6 6 6 6 4 3 3 3 3 3 2 1 0 0
24 24 24 22 19 18 19 18 17 15 14 14 14 13 10 9 9 9 8 8 8 7 7 7 5 3 3 4 4 5 6 5 5 3 2 2 3 3 3 3 1 0 0
27 27 27 26 23 20 19 16 14 12 11 11 11 12 11 9 8 8 8 8 9 8 8 7 5 2 2 2 3 3 3 3 2 2 1 1 2 3 3 3 2 1 0
29 29 29 28 27 24 20 17 14 12 10 10 10 10 10 8 5 5 7 8 7 7 5 5 3 2 1 1 1 1 1 1 0 0 0 0 1 1 2 3 3 2 1
30 30 30 28 27 25 22 19 16 12 9 8 7 7 7 6 3 3 4 5 3 2 3 3 3 2 1 0 0 0 0 0 0 0 0 0 0 1 1 2 3 3 3
29 30 29 27 24 23 21 19 17 13 9 6 5 4 4 3 1 1 1 1 0 0 2 3 3 3 1 1 1 0 0 0 0 0 0 0 0 1 2 1 2 3 2
27 28 27 23 20 19 19 18 16 13 9 6 4 3 3 2 0 0 0 0 0 0 1 2 2 2 2 2 2 1 1 0 0 0 0 0 0 1 1 1 1 1 1
28 26 24 21 18 17 16 15 15 13 11 8 5 3 3 2 1 0 0 0 0 0 1 1 1 1 1 1 2 2 1 0 0 0 0 0 0 0 0 0 0 0 0
28 27 24 20 18 16 14 13 13 14 14 12 8 5 4 3 1 0 0 0 0 0 0 0 0 0 0 0 1 1 1 0 1 1 1 0 0 0 0 0 0 1 1
26 26 23 21 19 17 15 14 14 14 15 14 12 8 6 4 2 0 0 0 0 1 1 0 0 0 0 0 0 0 0 0 1 1 1 0 0 0 1 1 1 2 2
23 22 21 21 19 17 17 17 16 15 14 14 13 10 8 7 4 2 0 0 0 1 2 1 0 0 0 0 0 0 0 0 0 0 0 0 0 1 2 3 3 3 3
19 18 18 19 18 16 17 19 17 15 14 13 14 13 11 10 8 5 2 0 0 1 2 1 0 0 0 0 0 0 0 0 0 0 0 0 0 1 3 4 5 4 4
16 16 16 16 17 16 15 16 16 15 13 13 14 14 12 11 9 7 4 1 0 0 1 1 0 0 0 0 0 0 0 0 0 0 0 1 1 2 3 4 6 6 5
16 16 14 13 14 15 12 11 12 12 12 12 12 12 11 10 8 5 3 2 1 0 0 1 2 2 1 1 1 0 0 0 0 0 0 1 2 3 3 4 5 5 5
14 14 13 12 13 13 10 7 7 8 7 6 7 7 7 6 4 2 1 1 0 0 1 3 4 4 2 2 2 1 1 1 1 1 1 1 2 3 4 4 4 4 5
11 10 10 11 13 12 9 5 4 4 3 2 2 2 2 2 1 0 0 0 0 0 0 2 3 3 1 1 2 2 2 2 3 3 2 1 2 3 4 5 5 5 6
9 8 8 10 12 11 8 5 4 3 3 2 1 0 0 0 0 0 0 0 0 0 0 0 1 1 0 0 1 1 1 1 2 3 2 2 2 3 4 4 5 5 6
9 7 7 8 11 11 9 6 4 3 3 2 1 0 0 0 0 0 0 0 0 0 0 0 0 0 0 0 0 0 0 0 0 1 1 1 2 2 3 3 4 5 6
8 7 6 8 10 11 9 7 5 4 3 2 1 0 0 0 0 0 0 0 0 0 0 0 0 0 0 0 0 0 0 0 0 0 0 0 1 1 1 2 2 3 4
7 6 6 8 10 11 9 8 6 4 3 2 1 0 0 0 0 0 0 0 0 0 0 0 0 0 0 0 0 0 0 0 0 0 1 1 1 0 0 1 1 1 2
6 5 5 7 9 9 8 7 6 4 3 1 1 0 0 0 0 0 0 0 0 0 0 0 0 0 0 0 0 0 0 0 0 1 2 2 2 1 0 0 0 0 1
4 3 3 4 5 5 5 4 4 3 2 1 1 1 0 0 0 0 0 0 0 0 0 0 0 0 0 0 0 0 0 0 0 1 2 2 2 1 0 0 1 0 0
3 2 2 3 3 3 3 3 3 2 1 1 2 1 0 0 0 0 0 0 0 0 0 0 0 0 0 0 0 0 0 0 0 0 1 1 1 1 0 0 0 0 0
3 2 1 2 2 2 2 2 2 1 0 1 2 1 0 0 0 0 0 0 0 0 0 0 0 0 0 0 0 0 0 0 0 0 0 0 0 0 0 0 0 0 0
3 2 1 1 1 1 1 1 1 0 0 1 2 2 1 0 0 0 0 0 0 0 0 0 0 0 0 0 0 0 0 0 0 0 0 0 0 0 0 0 0 0 0

GEFSGL_con_probscp_348.txt.gz
Probability
9 10 11 12 11 11 12 11 10 10 11 12 13 13 14 13 11 8 6 4 4 6 6 6 6 4 2 1 0 0 1 2 3 3 2 1 2 3 3 3 3 3 3
10 11 12 13 13 13 12 11 10 10 10 12 13 13 13 12 11 9 7 6 6 6 7 6 6 5 2 0 0 0 1 2 3 3 3 1 1 2 2 3 3 3 3
15 15 15 14 15 14 13 10 9 9 9 10 11 10 11 11 10 9 8 8 8 8 7 7 6 5 3 1 0 0 0 1 1 2 2 1 1 1 1 1 2 3 3
20 19 17 16 15 14 12 10 8 8 8 8 8 8 9 9 10 10 9 9 9 9 8 8 7 6 3 1 0 0 0 0 0 1 1 1 0 0 0 0 1 3 3
20 20 19 16 14 14 13 11 10 9 9 7 7 7 7 8 9 9 8 8 8 8 8 8 7 5 2 0 0 0 0 0 0 0 1 0 0 0 0 0 1 2 3
17 18 19 17 14 14 14 13 11 11 10 9 8 7 7 7 6 6 6 6 6 6 7 7 6 3 1 0 0 0 0 0 0 1 1 0 0 0 0 0 0 1 2
15 16 17 17 15 14 14 13 12 11 10 9 9 8 7 6 4 2 2 4 4 4 5 4 3 2 1 2 1 1 1 1 1 1 2 1 1 1 0 0 0 0 1
14 14 14 13 13 12 12 12 11 10 10 10 10 9 8 5 2 0 1 2 2 2 2 1 1 1 2 2 2 2 2 2 1 1 3 3 2 1 0 0 0 1 1
13 12 11 9 8 9 10 10 11 10 10 10 10 10 9 5 1 0 1 1 1 1 1 1 0 1 1 1 1 1 2 2 2 1 1 1 1 1 0 0 1 2 2
12 11 9 7 5 6 7 8 9 10 10 11 12 12 10 6 2 0 1 2 1 1 2 2 1 0 0 0 0 0 1 2 3 2 1 1 1 1 1 1 2 3 3
11 10 8 7 6 7 8 8 9 10 12 13 13 13 12 8 3 0 1 1 1 2 3 3 2 1 0 0 0 0 0 1 2 3 3 2 3 4 3 2 3 3 3
12 10 7 7 7 9 9 8 9 12 15 15 15 14 12 8 4 1 0 0 1 3 4 3 2 1 0 0 0 0 0 0 1 2 3 3 4 5 5 4 4 4 4
14 12 8 7 8 9 10 9 11 14 16 17 16 15 13 11 7 4 1 0 0 2 3 3 2 1 0 0 0 0 0 0 0 1 2 3 3 4 4 4 4 5 5
13 11 9 7 7 8 9 9 11 14 16 16 16 15 14 14 11 8 5 3 1 2 2 1 1 0 0 0 0 0 0 0 0 0 1 1 2 3 3 3 4 5 5
8 9 9 8 7 7 8 8 9 11 12 12 12 13 13 13 11 9 6 4 3 2 1 1 1 1 1 0 1 1 0 0 0 0 0 0 1 1 2 2 3 4 5
6 7 7 7 8 8 8 8 7 7 7 6 7 9 9 9 7 4 3 2 1 1 1 1 2 2 1 1 1 1 0 0 0 0 0 0 0 0 1 1 1 2 3
6 5 6 6 7 8 8 8 7 6 4 3 3 3 4 3 2 0 0 0 0 0 0 1 1 1 1 0 1 1 0 0 1 0 0 0 0 0 0 0 0 1 1
5 5 4 5 5 5 5 6 6 5 4 3 2 1 1 1 0 0 0 0 0 0 0 0 0 0 0 0 0 0 0 0 0 0 0 0 0 0 0 0 0 0 0
4 4 4 4 4 3 3 4 4 3 3 3 3 2 1 0 0 0 0 0 0 0 0 0 0 0 0 0 0 0 0 0 0 0 0 0 0 0 0 0 0 0 0
3 3 3 3 3 3 3 3 3 2 2 3 3 2 1 0 0 0 0 0 0 0 0 0 0 0 0 0 0 0 0 0 0 0 0 0 0 0 0 0 0 0 0
3 3 3 3 3 3 3 3 4 3 2 2 3 2 1 0 0 0 0 0 0 0 0 0 0 0 0 0 0 0 0 0 0 0 0 0 0 0 0 0 0 0 0
3 3 3 3 2 1 1 3 5 4 2 1 2 2 1 0 0 0 0 0 0 0 0 0 0 0 0 0 0 0 0 0 0 0 0 0 0 0 0 0 0 0 0
3 3 3 3 1 0 0 2 4 4 2 1 1 1 0 0 0 0 0 0 0 0 0 0 0 0 0 0 0 0 0 0 0 0 0 0 0 0 0 0 0 0 0
3 3 3 2 1 0 0 0 1 2 2 1 0 0 0 0 0 0 0 0 0 0 0 0 0 0 0 0 0 0 0 0 0 0 0 0 0 0 0 0 0 0 0
3 3 3 2 1 0 0 0 0 1 1 1 0 0 0 0 0 0 0 0 0 0 0 0 0 0 0 0 0 0 0 0 0 0 0 0 0 0 0 0 0 0 0
3 3 3 2 1 0 0 0 0 0 0 0 0 0 0 0 0 0 0 0 0 0 0 0 0 0 0 0 0 0 0 0 0 0 0 0 0 0 0 0 0 0 0

GEFSGL_con_probscp_354.txt.gz
Probability
19 17 15 16 20 24 26 26 25 22 18 17 17 17 17 16 16 17 17 15 13 14 13 11 10 9 8 8 9 9 11 11 10 9 8 6 6 7 7 7 7 7 7
19 19 18 18 21 25 26 26 25 23 20 19 19 19 20 20 19 18 17 16 15 15 15 13 11 10 10 11 12 11 11 12 12 12 10 8 9 9 9 7 6 6 6
20 21 22 22 22 24 25 25 24 22 20 20 21 20 20 20 19 17 16 16 16 16 16 15 13 12 13 15 14 13 13 13 15 15 13 11 10 10 11 8 6 6 6
19 20 21 21 22 24 24 23 22 21 21 21 19 18 18 17 16 14 13 13 13 14 15 16 15 15 15 16 16 15 14 15 16 16 14 12 11 10 10 8 7 7 7
19 18 18 19 22 24 24 23 22 22 21 20 17 16 15 13 12 12 12 12 12 13 14 15 16 15 13 13 13 14 15 15 15 16 15 13 12 11 8 6 7 8 8
20 20 21 22 24 27 27 26 24 22 21 18 16 14 13 10 9 9 9 10 12 14 14 15 14 13 11 9 9 9 10 11 12 14 15 14 13 12 8 5 6 7 7
23 24 27 27 27 29 31 31 28 24 21 18 15 13 12 10 7 5 6 9 11 12 14 16 15 14 13 12 8 6 5 7 9 12 14 14 13 11 9 7 7 7 7
23 25 28 30 28 29 32 34 31 26 22 19 16 14 13 10 7 4 5 8 10 11 13 17 19 18 16 13 10 8 8 8 8 9 10 10 10 9 9 9 8 8 7
20 22 24 26 28 30 33 33 31 27 23 20 17 15 13 10 7 4 5 8 11 13 16 18 19 17 13 9 9 11 12 11 8 6 6 6 6 6 7 8 8 8 7
19 21 23 24 27 31 33 32 31 29 24 20 17 14 11 10 7 4 4 9 14 17 21 22 17 10 6 4 7 10 12 12 11 10 8 7 6 6 5 6 8 7 6
18 21 24 25 25 27 28 29 30 29 26 22 19 16 13 12 8 4 4 9 15 20 24 24 17 7 2 1 3 7 8 10 13 15 14 12 10 8 7 6 7 7 7
19 21 22 22 22 22 22 24 26 27 26 23 21 20 19 16 11 5 2 5 12 19 23 22 15 6 1 0 1 3 3 6 12 16 16 15 12 11 10 8 8 8 9
22 21 20 20 19 19 19 21 22 23 24 22 21 22 22 21 16 10 5 3 6 13 18 16 9 3 0 1 1 1 1 5 11 14 13 12 11 11 11 10 10 11 11
22 21 19 18 16 16 17 17 18 20 21 21 21 22 23 23 20 16 13 9 7 9 13 13 8 4 3 4 4 3 3 5 8 10 9 8 8 9 9 9 10 11 11
20 19 17 15 14 14 14 13 13 15 16 17 17 18 20 20 17 15 15 14 11 10 13 15 14 11 10 10 9 7 5 4 4 5 5 5 5 5 5 6 7 8 8
18 17 16 14 13 12 11 10 10 9 8 8 9 9 10 10 8 7 8 9 8 8 12 16 17 17 16 14 12 9 6 4 2 2 3 4 4 4 4 4 4 5 5
14 14 14 12 11 10 10 9 9 7 5 3 3 2 2 2 2 2 2 2 1 4 9 15 16 17 16 14 12 8 5 4 4 3 3 4 3 4 4 4 3 3 3
12 11 11 10 9 9 9 8 7 6 5 4 2 1 0 0 0 0 0 1 1 3 8 13 15 15 14 13 11 8 4 3 5 4 3 3 3 3 4 3 3 3 3
9 8 8 7 7 7 7 6 5 5 6 5 5 3 2 1 1 1 1 3 5 6 7 9 11 12 12 12 12 8 5 3 4 4 3 3 3 3 3 3 2 2 1
6 5 4 4 4 5 6 5 5 5 5 6 7 6 4 3 3 2 2 4 6 7 7 6 7 9 11 12 11 9 6 4 3 3 3 3 3 2 2 1 1 1 0
4 3 2 1 2 3 4 5 4 4 4 5 7 6 4 4 5 4 4 4 5 5 5 5 6 8 10 10 10 9 7 4 3 2 2 2 1 1 1 0 0 0 0
3 3 2 1 1 2 3 4 3 3 3 4 6 4 3 4 6 7 7 6 5 5 5 5 6 7 8 8 8 8 6 3 1 1 1 1 0 0 0 0 0 0 0
2 3 3 2 1 1 2 3 3 3 3 4 5 4 3 5 7 8 8 8 7 7 5 4 4 4 4 4 6 6 4 2 1 1 1 0 0 0 0 0 0 0 0
2 3 3 3 1 1 2 3 3 2 3 3 4 4 4 5 6 6 6 7 7 6 5 3 2 1 1 2 4 4 3 2 2 3 2 1 0 0 0 0 0 0 0
1 2 3 3 2 2 2 3 2 2 2 2 3 3 3 4 3 3 4 4 5 5 5 3 1 0 1 2 3 3 2 1 1 2 2 2 1 0 0 0 0 0 0
0 1 3 3 3 3 3 3 2 2 2 1 2 3 3 3 2 2 3 3 4 5 5 3 1 1 2 2 2 2 1 0 0 0 1 2 2 1 0 0 0 0 0

GEFSGL_con_probscp_360.txt.gz
Probability
43 42 43 45 45 43 39 37 35 32 31 33 33 32 31 31 30 28 27 28 29 26 21 17 16 18 19 20 19 19 18 17 15 14 15 15 16 14 10 8 7 6 6
44 42 40 42 44 43 41 39 38 36 34 33 31 29 30 30 30 28 26 26 27 27 24 20 19 19 20 19 18 19 19 19 17 16 14 15 16 15 12 10 7 5 5
45 41 37 38 40 41 40 39 38 37 34 30 28 27 28 29 29 28 26 26 27 27 26 24 23 23 22 19 17 18 20 20 19 16 14 15 17 16 14 12 9 6 5
45 41 37 35 36 37 36 35 35 34 30 27 26 27 28 28 26 26 26 27 26 25 24 24 23 23 21 18 16 18 21 22 21 16 13 15 16 16 15 14 12 10 7
43 41 37 36 35 34 34 34 35 34 29 26 27 27 27 26 23 22 22 23 23 22 21 21 20 17 16 13 12 15 19 21 22 18 14 13 14 14 15 14 14 13 10
40 38 36 35 34 32 32 34 37 36 31 27 28 29 27 23 19 15 15 17 19 20 20 21 19 14 11 9 8 9 12 15 19 18 15 13 14 14 15 15 15 12 10
42 39 37 35 34 32 32 33 36 37 35 32 31 31 28 23 16 10 10 13 16 19 20 21 18 15 13 12 10 9 10 11 12 14 14 13 15 17 18 17 15 12 9
45 44 42 39 37 37 36 35 37 39 39 39 37 34 31 24 14 8 7 10 14 17 19 19 18 16 15 15 14 14 15 13 9 8 9 10 12 16 18 16 14 12 11
44 44 43 41 40 41 39 38 39 40 41 41 40 38 34 25 15 7 6 9 12 15 17 18 17 14 12 12 15 17 18 16 10 6 5 5 5 8 10 11 11 11 10
41 41 39 37 38 39 38 39 39 39 38 38 39 39 36 28 17 9 7 10 14 15 18 19 16 12 8 8 13 17 17 16 13 9 6 3 2 2 3 6 9 9 9
39 37 35 34 35 36 36 38 39 38 36 35 35 36 36 30 20 11 7 11 16 18 19 21 18 12 6 5 10 15 15 13 13 12 9 7 5 3 3 5 8 9 10
39 38 36 35 35 35 36 36 37 37 34 33 32 32 33 31 24 13 6 7 14 19 21 22 19 12 5 2 5 9 9 8 10 10 9 9 9 7 6 8 9 10 10
43 42 39 37 36 35 35 33 33 33 32 31 30 29 29 29 27 19 8 4 7 14 19 18 14 8 3 1 2 3 4 5 7 7 7 8 10 10 10 11 12 11 9
44 43 40 36 34 33 33 30 28 29 29 27 27 25 24 24 25 20 13 7 5 9 14 14 10 6 4 4 4 3 3 6 7 7 7 8 10 11 12 14 13 11 8
39 39 36 32 29 30 28 25 23 23 22 20 20 20 18 17 16 15 13 10 8 8 11 14 13 10 10 11 10 8 7 7 7 7 9 9 9 10 11 11 11 9 7
34 33 31 28 25 22 19 17 15 15 13 12 13 13 12 11 9 8 8 7 6 6 10 14 16 16 16 16 16 13 10 8 8 7 8 7 5 5 6 7 7 6 4
28 26 25 23 19 14 11 9 9 9 9 9 8 8 6 6 5 4 3 3 1 3 8 12 14 16 17 17 17 15 13 11 9 7 5 4 3 3 4 4 4 3 3
20 18 17 17 13 8 6 6 6 7 8 9 8 5 3 2 1 1 1 1 1 3 7 11 13 14 15 16 16 15 13 12 9 6 4 3 1 1 3 3 3 3 3
15 12 11 12 9 6 4 4 4 5 7 8 9 7 3 1 1 1 0 1 3 5 8 11 13 14 14 14 14 14 12 10 7 4 2 2 1 0 1 3 3 3 3
13 9 8 8 6 4 3 3 3 4 5 6 8 7 5 4 4 3 3 3 5 7 9 10 12 13 12 12 13 12 10 7 4 2 2 1 1 1 1 3 3 3 3
8 5 4 3 2 1 2 3 3 3 3 4 5 5 5 5 6 6 6 6 6 6 8 8 8 9 10 11 11 10 7 4 2 2 3 3 2 2 3 3 3 3 2
2 1 1 1 0 0 1 2 3 3 3 4 4 3 3 4 5 6 7 7 6 6 7 7 7 9 10 10 9 8 6 3 1 1 3 5 4 3 4 3 2 1 1
0 0 0 0 0 0 0 1 2 3 3 4 4 3 3 3 5 5 6 6 6 7 8 9 9 9 10 9 8 7 6 4 1 1 3 5 5 4 4 3 1 1 0
0 0 0 0 0 0 0 0 1 1 2 3 3 3 3 3 4 4 5 6 6 8 9 11 10 8 8 7 7 6 5 3 1 1 3 4 6 6 4 2 2 1 1
1 0 0 0 0 0 0 0 0 0 1 1 3 3 3 3 3 3 4 5 6 7 8 9 9 8 7 7 6 5 3 2 0 1 2 4 6 6 5 3 1 1 0
1 1 0 0 0 0 0 0 0 0 0 1 2 3 3 3 3 3 4 4 5 6 7 7 7 7 8 7 5 2 1 0 0 1 2 4 6 6 5 3 1 0 0

GEFSGL_con_probscp_366.txt.gz
Probability
16 16 15 13 12 11 9 7 7 8 10 10 10 12 14 15 15 14 13 12 11 9 7 5 4 3 3 2 2 2 2 2 1 0 0 0 0 1 2 3 4 3 3
17 17 16 14 12 11 9 6 6 7 8 9 11 12 14 14 14 13 13 13 12 11 9 7 5 4 3 3 3 2 2 2 2 1 0 1 1 0 1 2 3 3 2
20 20 19 17 13 11 10 8 7 6 7 8 10 11 12 13 13 12 12 13 13 12 11 10 8 5 4 4 3 3 2 3 3 2 1 1 1 1 0 0 1 1 1
22 22 22 19 14 12 12 11 9 7 6 7 8 8 10 11 11 11 11 12 13 13 13 12 10 9 6 5 4 3 4 4 4 3 1 1 1 1 1 1 0 0 0
21 20 19 17 14 12 12 11 9 7 6 6 6 7 8 10 10 9 9 11 12 13 13 12 12 11 9 6 5 4 4 5 5 3 2 2 1 1 2 2 1 0 0
16 16 16 15 14 13 12 10 8 7 6 6 7 7 8 9 8 7 7 9 11 13 13 12 11 10 9 7 5 4 4 5 5 4 5 5 4 3 3 3 2 1 0
15 15 15 16 16 16 14 11 8 7 7 8 8 9 9 8 7 5 4 6 9 12 12 12 11 10 9 8 6 4 4 4 4 4 6 6 5 4 3 3 3 2 1
17 17 17 18 20 20 18 14 11 9 9 8 9 9 9 8 6 4 3 5 7 10 11 11 11 10 9 8 6 5 4 4 3 4 5 6 6 5 4 3 3 2 1
17 18 20 21 23 23 21 18 15 13 11 9 8 8 7 7 6 4 3 5 7 9 10 10 10 9 8 7 6 6 6 5 4 4 4 5 4 3 3 2 1 1 0
17 18 20 22 24 24 22 21 19 17 15 13 10 9 8 7 6 5 3 5 7 9 9 9 8 8 6 4 5 6 7 7 6 5 4 4 3 1 1 1 0 0 0
18 18 21 24 24 23 21 21 20 18 17 16 14 13 12 10 8 6 3 3 6 8 9 9 8 6 3 2 2 4 6 7 8 7 6 4 3 1 0 0 0 0 0
19 20 23 25 24 22 19 18 18 17 16 15 15 14 14 13 11 7 3 2 3 6 8 8 8 6 2 0 0 2 3 5 8 10 9 6 4 3 1 1 0 0 0
18 19 20 21 21 19 16 15 16 16 15 14 13 13 13 14 12 9 5 2 1 3 4 5 6 5 2 0 0 0 1 3 9 12 11 7 5 4 2 1 1 1 0
14 15 16 16 16 15 14 14 14 14 13 13 12 12 12 13 13 11 8 5 3 3 3 3 3 3 3 2 2 1 1 4 8 11 9 6 3 2 1 1 1 1 1
10 11 12 13 14 14 13 12 10 9 9 9 9 9 10 11 11 11 10 8 5 4 5 5 4 5 5 7 6 3 2 4 7 8 7 5 2 0 0 0 1 1 0
9 9 9 10 12 13 13 10 8 5 4 4 4 5 5 6 7 8 8 6 4 3 5 7 8 7 8 9 8 6 5 5 7 8 8 6 3 1 1 1 0 0 0
9 8 6 7 8 10 11 10 7 4 2 1 2 2 2 1 2 3 3 2 1 1 5 9 10 10 9 9 8 7 6 7 8 9 9 7 5 4 3 2 1 0 0
7 7 6 5 6 7 8 8 6 3 2 2 2 1 1 0 0 1 1 0 1 2 5 10 12 11 9 8 7 6 7 8 9 10 9 8 6 5 4 2 1 0 0
6 6 5 4 5 5 5 4 3 2 1 1 1 1 0 0 0 0 0 1 2 4 6 9 11 10 9 8 7 7 7 8 9 9 9 8 6 5 4 1 0 0 0
6 5 3 2 3 4 3 2 1 0 0 0 0 0 0 0 0 0 0 1 3 5 6 7 8 9 8 7 6 7 7 7 8 8 9 7 5 3 2 0 0 0 0
5 4 1 1 2 2 2 1 0 0 0 0 0 0 0 0 0 0 1 1 2 4 5 6 6 6 6 5 5 6 6 7 6 7 7 5 2 1 0 0 0 0 0
3 2 1 0 1 1 1 0 0 0 0 0 0 0 0 0 0 0 1 2 3 3 4 4 4 4 4 3 4 4 4 4 5 5 4 3 1 0 0 0 0 0 0
2 1 0 0 0 0 0 0 0 0 0 0 0 0 0 0 0 0 1 2 3 3 3 3 4 4 3 3 3 3 3 3 3 3 3 2 1 0 0 0 0 0 0
2 1 0 0 0 0 0 0 0 0 0 0 0 0 0 0 0 0 0 1 3 3 3 2 3 2 2 3 3 3 3 3 2 3 3 2 1 0 0 0 0 0 0
2 1 0 0 0 0 0 0 0 0 0 0 0 0 0 0 0 0 0 1 2 2 1 1 1 1 1 2 3 3 3 2 1 2 2 2 1 0 0 0 0 0 0
1 0 0 0 0 0 0 0 0 0 0 0 0 0 0 0 0 0 0 0 1 2 1 0 0 0 0 1 3 3 3 1 1 1 1 1 0 0 0 0 0 0 0

GEFSGL_con_probscp_372.txt.gz
Probability
9 8 6 5 5 5 4 4 6 6 6 6 6 6 5 5 5 5 6 7 7 8 8 7 5 2 1 1 1 1 1 1 1 0 0 1 3 6 6 6 5 4 5
7 6 5 4 4 4 3 4 6 6 6 6 5 4 4 4 5 5 6 6 6 6 6 6 4 3 2 2 1 1 1 1 0 0 0 1 3 5 6 5 5 4 3
6 5 4 4 4 4 4 5 6 5 4 4 4 3 3 3 4 4 5 5 5 4 4 4 4 3 4 4 3 2 2 1 0 0 0 1 2 3 4 4 4 2 1
6 4 3 4 4 5 5 6 6 5 4 3 3 3 3 3 3 3 4 4 4 4 4 4 4 4 6 6 5 4 4 2 1 1 1 1 2 2 2 2 2 1 1
6 3 2 4 5 5 6 7 7 6 5 4 3 3 3 3 3 3 3 3 4 4 4 5 5 6 6 6 6 5 5 5 3 3 2 2 2 2 2 1 1 1 2
6 4 3 3 4 5 7 9 11 10 9 7 5 4 4 4 3 3 3 3 4 5 5 5 6 7 6 6 5 5 5 6 5 5 4 3 3 3 2 1 1 3 4
5 5 4 3 3 5 8 11 13 14 13 10 7 6 6 5 5 4 3 4 5 6 6 6 7 8 8 7 6 5 5 5 5 6 6 5 4 3 3 3 3 4 4
7 7 6 5 4 6 9 12 13 14 14 13 9 7 7 7 6 4 3 4 6 6 6 6 7 7 8 9 8 8 6 5 4 6 8 7 4 4 4 4 3 4 4
9 10 10 8 7 7 8 10 12 13 14 13 11 9 8 7 6 4 3 5 6 6 6 6 6 7 7 7 8 9 9 8 6 6 6 6 4 3 4 3 3 4 5
8 11 12 11 9 7 5 6 8 11 13 14 13 11 9 8 6 4 3 4 6 6 6 6 6 6 5 5 6 8 9 10 10 9 7 6 5 4 4 3 4 6 7
7 8 10 10 9 7 4 4 5 8 11 13 13 12 10 8 5 3 2 3 5 5 6 6 6 6 3 2 3 6 8 9 11 11 10 9 9 8 5 4 5 7 8
6 7 7 8 9 8 6 5 6 8 9 11 11 11 10 8 5 2 1 1 2 3 4 5 6 4 2 0 1 3 4 6 8 11 13 14 14 12 8 5 4 5 6
7 7 6 7 8 8 8 7 7 9 9 10 9 9 10 10 8 4 2 1 0 1 1 3 3 2 1 1 1 1 2 3 6 9 14 17 17 14 10 5 2 2 2
8 8 7 7 6 8 8 7 8 9 10 10 9 8 9 10 9 7 4 3 2 1 1 1 1 1 1 2 2 2 2 3 4 8 12 15 14 12 10 7 3 1 1
9 9 8 7 6 7 7 7 7 7 8 8 8 8 8 8 7 5 4 4 3 3 2 1 1 1 2 3 3 3 4 4 5 7 9 10 9 9 9 8 6 3 2
10 9 8 7 6 6 7 6 5 5 5 4 4 5 6 5 4 2 1 1 2 2 2 3 3 2 2 3 3 4 5 6 6 7 8 7 7 8 9 9 8 5 3
9 8 7 7 6 6 6 6 5 4 3 2 1 2 2 2 1 0 0 0 0 0 1 3 3 2 2 3 4 4 6 8 8 8 7 7 7 8 9 10 10 7 4
7 6 6 6 6 6 6 5 5 5 4 2 0 0 0 0 0 0 0 0 0 0 1 2 3 2 2 4 5 5 6 7 7 7 7 6 7 8 10 10 10 8 7
5 4 4 4 4 4 4 4 5 5 4 2 0 0 0 0 0 0 0 0 0 0 0 1 2 2 3 5 6 7 6 5 5 5 6 6 6 7 9 10 10 9 8
4 3 3 3 3 3 3 3 4 5 5 2 0 0 0 0 0 0 0 0 0 0 0 0 1 1 3 5 7 8 7 5 4 4 5 5 7 8 8 9 9 8 7
3 3 3 3 3 3 3 3 3 4 4 2 0 0 0 0 0 0 0 0 0 0 0 0 0 1 2 4 5 7 7 6 5 5 5 6 8 9 9 9 9 9 8
3 3 3 3 2 2 2 2 2 2 2 1 0 0 0 0 0 0 0 0 0 0 0 0 0 1 2 3 4 4 5 5 5 5 6 7 9 10 9 10 9 9 9
3 3 2 1 1 1 1 1 1 1 0 0 0 0 0 0 0 0 0 0 0 0 0 0 0 1 3 3 3 3 3 4 4 5 6 7 7 8 10 10 9 8 7
2 1 1 0 0 0 0 0 0 0 0 0 0 0 0 0 0 0 0 0 0 0 0 0 0 1 2 3 3 3 3 3 3 4 5 6 6 7 9 8 7 5 5
2 1 1 0 0 0 0 0 0 0 0 0 0 0 0 0 0 0 0 0 0 0 0 0 0 1 2 3 3 3 3 2 1 1 3 4 5 6 6 6 5 4 4
3 2 2 1 0 0 0 0 0 0 0 0 0 0 0 0 0 0 0 0 0 0 0 0 0 0 1 2 3 3 2 1 0 0 1 3 4 4 5 5 4 4 4

GEFSGL_con_probscp_378.txt.gz
Probability
29 28 26 25 26 26 26 25 22 17 13 10 11 12 11 10 9 9 11 13 16 18 18 16 14 12 13 13 12 11 11 11 8 4 2 6 10 11 12 12 9 7 7
29 28 27 27 27 27 26 25 22 17 13 11 11 11 10 9 9 10 12 14 16 17 17 17 15 14 15 16 14 13 12 11 11 7 4 6 9 10 12 12 10 9 9
31 30 29 28 27 25 24 25 23 19 15 13 12 11 9 9 11 13 14 15 16 15 16 16 16 17 18 18 17 16 15 13 13 11 8 8 9 10 12 13 13 14 13
31 30 29 27 25 22 22 23 21 19 18 16 14 13 11 11 13 15 15 15 15 14 14 14 14 15 16 16 16 16 16 15 15 13 11 10 10 11 13 15 18 19 18
28 26 25 23 21 20 20 20 19 18 17 16 15 12 11 11 12 13 13 13 13 13 13 12 10 9 9 9 10 12 14 16 16 15 13 12 12 14 16 18 20 20 20
26 24 20 19 18 18 18 18 18 17 16 15 14 10 8 7 7 7 8 9 11 12 12 11 9 7 6 6 6 7 9 12 14 15 15 13 13 15 18 19 19 19 18
24 22 19 17 16 17 16 16 16 15 14 14 12 10 7 5 4 3 4 6 10 13 13 11 10 8 7 7 6 6 7 8 10 14 16 15 15 17 19 19 19 18 17
23 21 19 18 17 15 15 16 15 14 13 12 11 10 10 9 5 2 2 6 11 14 13 12 11 10 9 9 9 9 9 9 9 12 14 14 14 15 17 18 19 18 17
21 20 18 18 17 16 15 15 15 14 13 11 10 12 14 14 9 2 3 8 13 15 15 13 12 11 10 9 9 10 10 10 9 9 10 10 10 10 13 16 17 17 16
18 17 17 16 16 15 13 13 13 13 12 10 10 12 16 16 10 3 4 11 16 17 16 14 11 9 8 7 8 9 10 10 10 10 11 11 11 10 11 14 16 16 17
16 16 16 15 13 11 11 12 12 12 12 11 11 12 14 13 9 3 4 9 14 16 16 13 11 7 5 4 5 7 8 9 11 13 14 16 18 17 16 16 16 16 17
16 16 16 14 11 10 11 13 12 11 11 11 11 12 11 11 9 5 3 3 7 12 13 11 8 5 2 1 2 3 4 5 9 11 13 16 19 20 21 21 20 19 18
16 15 14 13 11 11 13 14 11 9 9 10 11 11 11 10 10 7 3 1 2 5 8 7 4 2 1 0 1 1 1 4 6 8 9 11 14 17 21 23 23 22 21
18 16 15 14 13 14 15 14 11 9 10 10 11 12 11 11 11 10 8 4 2 2 4 4 4 2 1 1 2 1 2 4 5 5 6 8 10 12 17 20 22 22 22
21 19 16 15 15 15 15 13 10 9 9 10 11 10 9 9 10 10 9 8 5 3 3 5 6 5 5 5 5 5 5 4 4 4 5 6 7 8 12 16 19 20 19
22 20 16 14 14 14 13 11 8 7 5 6 7 6 4 4 5 6 6 6 4 2 3 6 7 8 8 9 10 9 9 8 7 6 6 7 8 8 10 14 16 16 15
19 18 16 14 13 12 11 10 8 6 3 3 3 2 1 1 1 1 1 1 1 1 3 5 6 7 8 9 10 10 10 10 9 9 8 8 9 10 11 13 14 12 11
16 16 16 15 13 11 10 10 9 8 6 4 3 1 0 0 0 0 0 0 0 1 3 5 6 6 7 7 8 9 9 8 8 8 8 9 10 10 11 12 13 12 11
15 14 14 15 14 12 11 10 10 9 7 5 5 3 1 0 0 0 0 0 0 1 3 3 4 5 6 6 6 7 7 7 7 8 9 9 9 9 9 10 12 12 12
14 12 12 12 12 12 11 10 9 8 7 6 6 5 2 1 1 1 0 0 0 0 1 1 2 3 4 4 4 5 6 6 7 8 9 9 9 9 9 10 12 12 12
11 10 10 10 11 11 10 10 9 7 6 5 6 5 3 2 2 2 1 0 0 1 1 0 1 2 3 3 3 3 4 4 5 5 6 7 7 7 8 10 11 12 13
8 8 9 10 9 8 8 9 8 6 5 5 5 3 2 2 3 2 1 0 0 1 1 0 0 1 2 3 3 3 3 3 3 3 4 5 6 6 7 8 10 11 12
7 7 8 9 8 7 7 8 7 5 4 4 3 2 1 1 1 1 0 0 0 1 1 0 1 1 1 2 3 3 3 3 3 3 3 3 4 5 6 6 8 9 10
6 7 7 7 7 7 6 7 6 4 3 3 2 2 1 1 1 0 0 0 0 0 0 0 1 2 2 3 3 3 3 2 2 2 3 3 3 4 4 5 6 7 8
7 7 7 7 7 6 6 6 5 4 3 2 2 2 2 2 2 1 0 0 0 0 0 0 1 2 2 2 2 2 1 1 1 1 1 2 2 3 3 4 5 6 6
7 8 9 8 7 6 6 5 4 4 3 2 2 2 3 3 2 1 0 0 0 0 0 0 0 1 1 1 1 1 0 0 0 0 0 1 1 2 3 4 4 4 4